Starlink 32379

operational
NORAD ID: 61851 Int'l Des: 2024-202 Owner: SPXS Country: US Constellation: starlink
LEOCIRCULAR

Starlink 32379について

説明を読み込み中...

リアルタイム位置

3D地球を読み込み中...

次回通過

高度履歴

Altitude vs Time

uPlot chart will show altitude changes over time

軌道要素

1 61851U 24202G 26036.09312659 .00000374 00000-0 23118-4 0 9996
2 61851 43.0034 50.7232 0000800 250.0816 109.9949 15.27577896 70472
Epoch: Feb 5, 2026 • Age: 14 hours

現在のステータス

高度 493.3 km
速度 7.62 km/s
衛星直下点 -36.61°S, 22.15°W
打ち上げ日 Nov 7, 2024
運用期間 1.2 years
タイプ internet

技術仕様

分類 Payload
質量 730.00 kg
乾燥質量 700.00 kg
総質量 730.00 kg
長さ 0.30 m
直径 4.10 m
スパン 29.00 m
形状 Box + pan
製造者 SPXS
バスタイプ Starlink V2M
フェーズステータス In Orbit
所有者/国 SPXS/US

大規模コンステレーション

Loading constellations...